Year,Month,Day,Hour,Minute,Value (Times are PST for barometer in hPa)
2020,02,18,00,00,1029.84
2020,02,18,00,01,1029.84
2020,02,18,00,02,1029.81
2020,02,18,00,03,1029.83
2020,02,18,00,04,1029.81
2020,02,18,00,05,1029.83
2020,02,18,00,06,1029.84
2020,02,18,00,07,1029.86
2020,02,18,00,08,1029.87
2020,02,18,00,09,1029.89
2020,02,18,00,10,1029.86
2020,02,18,00,11,1029.88
2020,02,18,00,12,1029.93
2020,02,18,00,13,1029.91
2020,02,18,00,14,1029.90
2020,02,18,00,15,1029.90
2020,02,18,00,16,1029.90
2020,02,18,00,17,1029.90
2020,02,18,00,18,1029.88
2020,02,18,00,19,1029.87
2020,02,18,00,20,1029.87
2020,02,18,00,21,1029.87
2020,02,18,00,22,1029.85
2020,02,18,00,23,1029.88
2020,02,18,00,24,1029.90
2020,02,18,00,25,1029.88
2020,02,18,00,26,1029.94
2020,02,18,00,27,1029.90
2020,02,18,00,28,1029.89
2020,02,18,00,29,1029.93
2020,02,18,00,30,1029.94
2020,02,18,00,31,1029.91
2020,02,18,00,32,1029.90
2020,02,18,00,33,1029.88
2020,02,18,00,34,1029.89
2020,02,18,00,35,1029.90
2020,02,18,00,36,1029.90
2020,02,18,00,37,1029.90
2020,02,18,00,38,1029.88
2020,02,18,00,39,1029.89
2020,02,18,00,40,1029.88
2020,02,18,00,41,1029.89
2020,02,18,00,42,1029.93
2020,02,18,00,43,1029.94
2020,02,18,00,44,1029.96
2020,02,18,00,45,1029.97
2020,02,18,00,46,1029.97
2020,02,18,00,47,1029.99
2020,02,18,00,48,1029.98
2020,02,18,00,49,1029.97
2020,02,18,00,50,1029.97
2020,02,18,00,51,1029.99
2020,02,18,00,52,1029.98
2020,02,18,00,53,1029.99
2020,02,18,00,54,1029.98
2020,02,18,00,55,1029.97
2020,02,18,00,56,1029.97
2020,02,18,00,57,1029.97
2020,02,18,00,58,1029.99
2020,02,18,00,59,1030.00
2020,02,18,01,00,1030.00
2020,02,18,01,01,1030.00
2020,02,18,01,02,1030.00
2020,02,18,01,03,1029.98
2020,02,18,01,04,1029.97
2020,02,18,01,05,1029.97
2020,02,18,01,06,1029.97
2020,02,18,01,07,1029.97
2020,02,18,01,08,1029.97
2020,02,18,01,09,1029.97
2020,02,18,01,10,1029.99
2020,02,18,01,11,1029.98
2020,02,18,01,12,1029.97
2020,02,18,01,13,1029.95
2020,02,18,01,14,1029.94
2020,02,18,01,15,1029.94
2020,02,18,01,16,1029.91
2020,02,18,01,17,1029.93
2020,02,18,01,18,1029.91
2020,02,18,01,19,1029.90
2020,02,18,01,20,1029.90
2020,02,18,01,21,1029.90
2020,02,18,01,22,1029.90
2020,02,18,01,23,1029.90
2020,02,18,01,24,1029.88
2020,02,18,01,25,1029.87
2020,02,18,01,26,1029.87
2020,02,18,01,27,1029.87
2020,02,18,01,28,1029.87
2020,02,18,01,29,1029.89
2020,02,18,01,30,1029.90
2020,02,18,01,31,1029.90
2020,02,18,01,32,1029.93
2020,02,18,01,33,1029.91
2020,02,18,01,34,1029.93
2020,02,18,01,35,1029.98
2020,02,18,01,36,1029.98
2020,02,18,01,37,1029.95
2020,02,18,01,38,1029.96
2020,02,18,01,39,1029.95
2020,02,18,01,40,1029.98
2020,02,18,01,41,1030.00
2020,02,18,01,42,1030.03
2020,02,18,01,43,1030.04
2020,02,18,01,44,1030.01
2020,02,18,01,45,1030.03
2020,02,18,01,46,1030.06
2020,02,18,01,47,1030.07
2020,02,18,01,48,1030.07
2020,02,18,01,49,1030.07
2020,02,18,01,50,1030.07
2020,02,18,01,51,1030.07
2020,02,18,01,52,1030.05
2020,02,18,01,53,1030.06
2020,02,18,01,54,1030.07
2020,02,18,01,55,1030.05
2020,02,18,01,56,1029.99
2020,02,18,01,57,1029.99
2020,02,18,01,58,1030.03
2020,02,18,01,59,1030.04
2020,02,18,02,00,1030.04
2020,02,18,02,01,1030.04
2020,02,18,02,02,1030.04
2020,02,18,02,03,1030.04
2020,02,18,02,04,1030.01
2020,02,18,02,05,1030.03
2020,02,18,02,06,1030.04
2020,02,18,02,07,1030.01
2020,02,18,02,08,1030.03
2020,02,18,02,09,1030.01
2020,02,18,02,10,1029.98
2020,02,18,02,11,1029.97
2020,02,18,02,12,1029.97
2020,02,18,02,13,1029.97
2020,02,18,02,14,1029.97
2020,02,18,02,15,1029.97
2020,02,18,02,16,1029.97
2020,02,18,02,17,1029.95
2020,02,18,02,18,1029.94
2020,02,18,02,19,1029.96
2020,02,18,02,20,1029.95
2020,02,18,02,21,1029.91
2020,02,18,02,22,1029.90
2020,02,18,02,23,1029.93
2020,02,18,02,24,1029.91
2020,02,18,02,25,1029.90
2020,02,18,02,26,1029.88
2020,02,18,02,27,1029.87
2020,02,18,02,28,1029.87
2020,02,18,02,29,1029.87
2020,02,18,02,30,1029.82
2020,02,18,02,31,1029.80
2020,02,18,02,32,1029.75
2020,02,18,02,33,1029.73
2020,02,18,02,34,1029.73
2020,02,18,02,35,1029.76
2020,02,18,02,36,1029.79
2020,02,18,02,37,1029.80
2020,02,18,02,38,1029.80
2020,02,18,02,39,1029.80
2020,02,18,02,40,1029.83
2020,02,18,02,41,1029.81
2020,02,18,02,42,1029.78
2020,02,18,02,43,1029.77
2020,02,18,02,44,1029.77
2020,02,18,02,45,1029.77
2020,02,18,02,46,1029.79
2020,02,18,02,47,1029.80
2020,02,18,02,48,1029.78
2020,02,18,02,49,1029.77
2020,02,18,02,50,1029.74
2020,02,18,02,51,1029.76
2020,02,18,02,52,1029.77
2020,02,18,02,53,1029.77
2020,02,18,02,54,1029.77
2020,02,18,02,55,1029.77
2020,02,18,02,56,1029.77
2020,02,18,02,57,1029.77
2020,02,18,02,58,1029.74
2020,02,18,02,59,1029.76
2020,02,18,03,00,1029.74
2020,02,18,03,01,1029.73
2020,02,18,03,02,1029.73
2020,02,18,03,06,1029.77
2020,02,18,03,07,1029.77
2020,02,18,03,08,1029.74
2020,02,18,03,09,1029.71
2020,02,18,03,10,1029.70
2020,02,18,03,11,1029.70
2020,02,18,03,12,1029.68
2020,02,18,03,13,1029.67
2020,02,18,03,14,1029.70
2020,02,18,03,15,1029.72
2020,02,18,03,16,1029.73
2020,02,18,03,17,1029.76
2020,02,18,03,18,1029.77
2020,02,18,03,19,1029.71
2020,02,18,03,20,1029.72
2020,02,18,03,21,1029.76
2020,02,18,03,22,1029.77
2020,02,18,03,23,1029.74
2020,02,18,03,24,1029.71
2020,02,18,03,25,1029.70
2020,02,18,03,26,1029.70
2020,02,18,03,27,1029.73
2020,02,18,03,28,1029.73
2020,02,18,03,29,1029.73
2020,02,18,03,30,1029.73
2020,02,18,03,31,1029.70
2020,02,18,03,32,1029.68
2020,02,18,03,33,1029.64
2020,02,18,03,34,1029.63
2020,02,18,03,35,1029.63
2020,02,18,03,36,1029.63
2020,02,18,03,37,1029.63
2020,02,18,03,38,1029.66
2020,02,18,03,39,1029.67
2020,02,18,03,40,1029.64
2020,02,18,03,41,1029.63
2020,02,18,03,42,1029.63
2020,02,18,03,43,1029.66
2020,02,18,03,44,1029.69
2020,02,18,03,45,1029.70
2020,02,18,03,46,1029.70
2020,02,18,03,47,1029.70
2020,02,18,03,48,1029.70
2020,02,18,03,49,1029.68
2020,02,18,03,50,1029.70
2020,02,18,03,51,1029.70
2020,02,18,03,52,1029.70
2020,02,18,03,53,1029.70
2020,02,18,03,54,1029.70
2020,02,18,03,55,1029.72
2020,02,18,03,56,1029.70
2020,02,18,03,57,1029.70
2020,02,18,03,58,1029.73
2020,02,18,03,59,1029.73
2020,02,18,04,00,1029.76
2020,02,18,04,01,1029.77
2020,02,18,04,02,1029.83
2020,02,18,04,03,1029.84
2020,02,18,04,04,1029.84
2020,02,18,04,05,1029.84
2020,02,18,04,06,1029.84
2020,02,18,04,07,1029.86
2020,02,18,04,08,1029.87
2020,02,18,04,09,1029.84
2020,02,18,04,10,1029.87
2020,02,18,04,11,1029.85
2020,02,18,04,12,1029.84
2020,02,18,04,13,1029.84
2020,02,18,04,14,1029.84
2020,02,18,04,15,1029.86
2020,02,18,04,16,1029.87
2020,02,18,04,17,1029.87
2020,02,18,04,18,1029.85
2020,02,18,04,19,1029.84
2020,02,18,04,20,1029.86
2020,02,18,04,21,1029.87
2020,02,18,04,22,1029.90
2020,02,18,04,23,1029.88
2020,02,18,04,24,1029.87
2020,02,18,04,25,1029.84
2020,02,18,04,26,1029.84
2020,02,18,04,27,1029.84
2020,02,18,04,28,1029.81
2020,02,18,04,29,1029.83
2020,02,18,04,30,1029.84
2020,02,18,04,31,1029.87
2020,02,18,04,32,1029.89
2020,02,18,04,33,1029.90
2020,02,18,04,34,1029.87
2020,02,18,04,35,1029.85
2020,02,18,04,36,1029.84
2020,02,18,04,37,1029.87
2020,02,18,04,38,1029.89
2020,02,18,04,39,1029.90
2020,02,18,04,40,1029.93
2020,02,18,04,41,1029.94
2020,02,18,04,42,1029.94
2020,02,18,04,43,1029.94
2020,02,18,04,44,1029.94
2020,02,18,04,45,1029.96
2020,02,18,04,46,1029.95
2020,02,18,04,47,1029.91
2020,02,18,04,48,1029.96
2020,02,18,04,49,1029.97
2020,02,18,04,50,1029.97
2020,02,18,04,51,1029.97
2020,02,18,04,52,1029.99
2020,02,18,04,53,1030.00
2020,02,18,04,54,1030.03
2020,02,18,04,55,1030.04
2020,02,18,04,56,1030.01
2020,02,18,04,57,1030.03
2020,02,18,04,58,1030.04
2020,02,18,04,59,1030.04
2020,02,18,05,00,1030.04
2020,02,18,05,01,1030.07
2020,02,18,05,02,1030.07
2020,02,18,05,03,1030.07
2020,02,18,05,04,1030.05
2020,02,18,05,05,1030.07
2020,02,18,05,06,1030.07
2020,02,18,05,07,1030.01
2020,02,18,05,08,1030.00
2020,02,18,05,09,1029.98
2020,02,18,05,10,1030.00
2020,02,18,05,11,1029.98
2020,02,18,05,12,1030.00
2020,02,18,05,13,1030.00
2020,02,18,05,14,1030.00
2020,02,18,05,15,1030.00
2020,02,18,05,16,1029.98
2020,02,18,05,17,1029.99
2020,02,18,05,18,1029.98
2020,02,18,05,19,1029.97
2020,02,18,05,20,1029.95
2020,02,18,05,21,1029.94
2020,02,18,05,22,1029.94
2020,02,18,05,23,1029.94
2020,02,18,05,24,1029.91
2020,02,18,05,25,1029.93
2020,02,18,05,26,1029.94
2020,02,18,05,27,1029.94
2020,02,18,05,28,1029.91
2020,02,18,05,29,1029.88
2020,02,18,05,30,1029.87
2020,02,18,05,31,1029.87
2020,02,18,05,32,1029.85
2020,02,18,05,33,1029.86
2020,02,18,05,34,1029.85
2020,02,18,05,35,1029.84
2020,02,18,05,36,1029.81
2020,02,18,05,37,1029.80
2020,02,18,05,38,1029.80
2020,02,18,05,39,1029.78
2020,02,18,05,40,1029.74
2020,02,18,05,41,1029.76
2020,02,18,05,42,1029.77
2020,02,18,05,43,1029.71
2020,02,18,05,44,1029.72
2020,02,18,05,45,1029.70
2020,02,18,05,46,1029.68
2020,02,18,05,47,1029.69
2020,02,18,05,48,1029.68
2020,02,18,05,49,1029.67
2020,02,18,05,50,1029.67
2020,02,18,05,51,1029.64
2020,02,18,05,52,1029.69
2020,02,18,05,53,1029.70
2020,02,18,05,54,1029.70
2020,02,18,05,55,1029.70
2020,02,18,05,56,1029.70
2020,02,18,05,57,1029.70
2020,02,18,05,58,1029.68
2020,02,18,05,59,1029.67
2020,02,18,06,00,1029.64
2020,02,18,06,01,1029.66
2020,02,18,06,02,1029.67
2020,02,18,06,03,1029.67
2020,02,18,06,04,1029.67
2020,02,18,06,05,1029.67
2020,02,18,06,06,1029.61
2020,02,18,06,07,1029.60
2020,02,18,06,08,1029.60
2020,02,18,06,09,1029.60
2020,02,18,06,10,1029.60
2020,02,18,06,11,1029.60
2020,02,18,06,12,1029.60
2020,02,18,06,13,1029.66
2020,02,18,06,14,1029.67
2020,02,18,06,15,1029.64
2020,02,18,06,16,1029.63
2020,02,18,06,17,1029.61
2020,02,18,06,18,1029.60
2020,02,18,06,19,1029.57
2020,02,18,06,20,1029.51
2020,02,18,06,21,1029.52
2020,02,18,06,22,1029.53
2020,02,18,06,23,1029.53
2020,02,18,06,24,1029.51
2020,02,18,06,25,1029.44
2020,02,18,06,26,1029.49
2020,02,18,06,27,1029.47
2020,02,18,06,28,1029.44
2020,02,18,06,29,1029.45
2020,02,18,06,30,1029.49
2020,02,18,06,31,1029.47
2020,02,18,06,32,1029.49
2020,02,18,06,33,1029.52
2020,02,18,06,34,1029.50
2020,02,18,06,35,1029.44
2020,02,18,06,36,1029.45
2020,02,18,06,37,1029.44
2020,02,18,06,38,1029.43
2020,02,18,06,39,1029.43
2020,02,18,06,40,1029.37
2020,02,18,06,41,1029.38
2020,02,18,06,42,1029.37
2020,02,18,06,43,1029.38
2020,02,18,06,44,1029.39
2020,02,18,06,45,1029.42
2020,02,18,06,46,1029.43
2020,02,18,06,47,1029.43
2020,02,18,06,48,1029.43
2020,02,18,06,49,1029.45
2020,02,18,06,50,1029.49
2020,02,18,06,51,1029.47
2020,02,18,06,52,1029.44
2020,02,18,06,53,1029.51
2020,02,18,06,54,1029.51
2020,02,18,06,55,1029.52
2020,02,18,06,56,1029.53
2020,02,18,06,57,1029.51
2020,02,18,06,58,1029.50
2020,02,18,06,59,1029.50
2020,02,18,07,00,1029.52
2020,02,18,07,01,1029.51
2020,02,18,07,02,1029.50
2020,02,18,07,03,1029.55
2020,02,18,07,04,1029.51
2020,02,18,07,05,1029.50
2020,02,18,07,06,1029.50
2020,02,18,07,07,1029.50
2020,02,18,07,08,1029.52
2020,02,18,07,09,1029.53
2020,02,18,07,10,1029.55
2020,02,18,07,11,1029.56
2020,02,18,07,12,1029.54
2020,02,18,07,13,1029.55
2020,02,18,07,14,1029.56
2020,02,18,07,15,1029.59
2020,02,18,07,16,1029.60
2020,02,18,07,17,1029.62
2020,02,18,07,18,1029.63
2020,02,18,07,19,1029.63
2020,02,18,07,20,1029.66
2020,02,18,07,21,1029.67
2020,02,18,07,22,1029.71
2020,02,18,07,23,1029.71
2020,02,18,07,24,1029.70
2020,02,18,07,25,1029.76
2020,02,18,07,26,1029.74
2020,02,18,07,27,1029.76
2020,02,18,07,28,1029.77
2020,02,18,07,29,1029.79
2020,02,18,07,30,1029.78
2020,02,18,07,31,1029.79
2020,02,18,07,32,1029.83
2020,02,18,07,33,1029.81
2020,02,18,07,34,1029.78
2020,02,18,07,35,1029.79
2020,02,18,07,36,1029.80
2020,02,18,07,37,1029.78
2020,02,18,07,38,1029.77
2020,02,18,07,39,1029.74
2020,02,18,07,40,1029.76
2020,02,18,07,41,1029.77
2020,02,18,07,42,1029.77
2020,02,18,07,43,1029.79
2020,02,18,07,44,1029.83
2020,02,18,07,45,1029.81
2020,02,18,07,46,1029.80
2020,02,18,07,47,1029.80
2020,02,18,07,48,1029.80
2020,02,18,07,49,1029.78
2020,02,18,07,50,1029.77
2020,02,18,07,51,1029.79
2020,02,18,07,52,1029.83
2020,02,18,07,53,1029.84
2020,02,18,07,54,1029.84
2020,02,18,07,55,1029.86
2020,02,18,07,56,1029.87
2020,02,18,07,57,1029.87
2020,02,18,07,58,1029.89
2020,02,18,07,59,1029.90
2020,02,18,08,00,1029.93
2020,02,18,08,01,1029.96
2020,02,18,08,02,1029.97
2020,02,18,08,03,1029.95
2020,02,18,08,04,1029.94
2020,02,18,08,05,1029.96
2020,02,18,08,06,1029.97
2020,02,18,08,07,1029.91
2020,02,18,08,08,1029.90
2020,02,18,08,09,1029.88
2020,02,18,08,10,1029.87
2020,02,18,08,11,1029.85
2020,02,18,08,12,1029.86
2020,02,18,08,13,1029.85
2020,02,18,08,14,1029.84
2020,02,18,08,15,1029.86
2020,02,18,08,16,1029.87
2020,02,18,08,17,1029.87
2020,02,18,08,18,1029.87
2020,02,18,08,19,1029.87
2020,02,18,08,20,1029.81
2020,02,18,08,21,1029.86
2020,02,18,08,22,1029.87
2020,02,18,08,23,1029.89
2020,02,18,08,24,1029.93
2020,02,18,08,25,1029.91
2020,02,18,08,26,1029.90
2020,02,18,08,27,1029.90
2020,02,18,08,28,1029.93
2020,02,18,08,29,1029.91
2020,02,18,08,30,1029.93
2020,02,18,08,31,1029.94
2020,02,18,08,32,1029.94
2020,02,18,08,33,1029.96
2020,02,18,08,34,1029.97
2020,02,18,08,35,1029.95
2020,02,18,08,36,1029.94
2020,02,18,08,37,1029.96
2020,02,18,08,38,1029.95
2020,02,18,08,39,1029.96
2020,02,18,08,40,1029.97
2020,02,18,08,41,1029.95
2020,02,18,08,42,1029.98
2020,02,18,08,43,1030.00
2020,02,18,08,44,1030.06
2020,02,18,08,45,1030.07
2020,02,18,08,46,1030.10
2020,02,18,08,47,1030.08
2020,02,18,08,48,1030.07
2020,02,18,08,49,1030.05
2020,02,18,08,50,1030.10
2020,02,18,08,51,1030.08
2020,02,18,08,52,1030.05
2020,02,18,08,53,1030.14
2020,02,18,08,54,1030.15
2020,02,18,08,55,1030.12
2020,02,18,08,56,1030.11
2020,02,18,08,57,1030.11
2020,02,18,08,58,1030.08
2020,02,18,08,59,1030.07
2020,02,18,09,00,1030.07
2020,02,18,09,01,1030.05
2020,02,18,09,02,1030.04
2020,02,18,09,03,1030.01
2020,02,18,09,04,1029.98
2020,02,18,09,05,1030.03
2020,02,18,09,06,1030.06
2020,02,18,09,07,1030.07
2020,02,18,09,08,1030.07
2020,02,18,09,09,1030.05
2020,02,18,09,10,1030.04
2020,02,18,09,11,1029.99
2020,02,18,09,12,1029.99
2020,02,18,09,13,1030.00
2020,02,18,09,14,1030.00
2020,02,18,09,15,1030.00
2020,02,18,09,16,1030.00
2020,02,18,09,17,1030.03
2020,02,18,09,18,1030.06
2020,02,18,09,19,1030.10
2020,02,18,09,20,1030.11
2020,02,18,09,21,1030.11
2020,02,18,09,22,1030.13
2020,02,18,09,23,1030.14
2020,02,18,09,24,1030.14
2020,02,18,09,25,1030.16
2020,02,18,09,26,1030.17
2020,02,18,09,27,1030.12
2020,02,18,09,28,1030.16
2020,02,18,09,29,1030.12
2020,02,18,09,30,1030.08
2020,02,18,09,31,1030.05
2020,02,18,09,32,1030.04
2020,02,18,09,33,1030.04
2020,02,18,09,34,1030.04
2020,02,18,09,35,1029.99
2020,02,18,09,36,1029.95
2020,02,18,09,37,1029.94
2020,02,18,09,38,1029.86
2020,02,18,09,39,1029.84
2020,02,18,09,40,1029.84
2020,02,18,09,41,1029.84
2020,02,18,09,42,1029.86
2020,02,18,09,43,1029.87
2020,02,18,09,44,1029.85
2020,02,18,09,45,1029.81
2020,02,18,09,46,1029.85
2020,02,18,09,47,1029.89
2020,02,18,09,48,1029.85
2020,02,18,09,49,1029.89
2020,02,18,09,50,1029.88
2020,02,18,09,51,1029.89
2020,02,18,09,52,1029.90
2020,02,18,09,53,1029.90
2020,02,18,09,54,1029.93
2020,02,18,09,55,1029.91
2020,02,18,09,56,1029.90
2020,02,18,09,57,1029.90
2020,02,18,09,58,1029.88
2020,02,18,09,59,1029.89
2020,02,18,10,00,1029.90
2020,02,18,10,01,1029.93
2020,02,18,10,02,1029.91
2020,02,18,10,03,1029.90
2020,02,18,10,04,1029.95
2020,02,18,10,05,1029.92
2020,02,18,10,06,1029.93
2020,02,18,10,07,1029.94
2020,02,18,10,08,1029.96
2020,02,18,10,09,1029.95
2020,02,18,10,10,1029.91
2020,02,18,10,11,1029.93
2020,02,18,10,12,1029.94
2020,02,18,10,13,1029.87
2020,02,18,10,14,1029.89
2020,02,18,10,15,1029.88
2020,02,18,10,16,1029.87
2020,02,18,10,17,1029.85
2020,02,18,10,18,1029.84
2020,02,18,10,19,1029.84
2020,02,18,10,20,1029.84
2020,02,18,10,21,1029.81
2020,02,18,10,22,1029.78
2020,02,18,10,23,1029.79
2020,02,18,10,24,1029.80
2020,02,18,10,25,1029.78
2020,02,18,10,26,1029.77
2020,02,18,10,27,1029.79
2020,02,18,10,28,1029.78
2020,02,18,10,29,1029.77
2020,02,18,10,30,1029.77
2020,02,18,10,31,1029.77
2020,02,18,10,32,1029.79
2020,02,18,10,33,1029.83
2020,02,18,10,34,1029.78
2020,02,18,10,35,1029.79
2020,02,18,10,36,1029.75
2020,02,18,10,37,1029.73
2020,02,18,10,38,1029.73
2020,02,18,10,39,1029.71
2020,02,18,10,40,1029.70
2020,02,18,10,41,1029.70
2020,02,18,10,42,1029.70
2020,02,18,10,43,1023.31
2020,02,18,10,44,1021.03
2020,02,18,10,45,1021.03
2020,02,18,10,46,1026.97
2020,02,18,10,47,1028.95
2020,02,18,10,48,1028.95
2020,02,18,10,49,1028.95
2020,02,18,10,50,1029.49
2020,02,18,10,51,1029.67
2020,02,18,10,52,1029.67
2020,02,18,10,53,1029.67
2020,02,18,10,54,1029.67
2020,02,18,10,55,1019.59
2020,02,18,10,56,1015.27
2020,02,18,10,57,1015.27
2020,02,18,10,58,1015.27
2020,02,18,10,59,1015.27
2020,02,18,11,00,1017.46
2020,02,18,11,01,1018.19
2020,02,18,11,02,1018.19
2020,02,18,11,03,1019.68
2020,02,18,11,04,1020.18
2020,02,18,11,05,1020.18
2020,02,18,11,06,1020.18
2020,02,18,11,07,1020.18
2020,02,18,11,08,1020.18
2020,02,18,11,09,1020.18
2020,02,18,11,10,1020.18
2020,02,18,11,11,1017.36
2020,02,18,11,12,1016.42
2020,02,18,11,13,1016.42
2020,02,18,11,14,1019.29
2020,02,18,11,15,1020.32
2020,02,18,11,16,1020.32
2020,02,18,11,17,1020.32
2020,02,18,11,18,1020.32
2020,02,18,11,19,1020.32
2020,02,18,11,20,1020.32
2020,02,18,11,21,1020.32
2020,02,18,11,22,1020.32
2020,02,18,11,23,1020.32
2020,02,18,11,24,1020.32
2020,02,18,11,25,1020.32
2020,02,18,11,26,1014.18
2020,02,18,11,27,1011.89
2020,02,18,11,28,1011.85
2020,02,18,11,29,1011.85
2020,02,18,11,30,1011.85
2020,02,18,11,31,1011.85
2020,02,18,11,32,1011.85
2020,02,18,11,33,1011.85
2020,02,18,11,34,1011.85
2020,02,18,11,35,1011.85
2020,02,18,11,36,1011.85
2020,02,18,11,37,1011.85
2020,02,18,11,38,1011.85
2020,02,18,11,39,1011.85
2020,02,18,11,40,1011.85
2020,02,18,11,41,1011.85
2020,02,18,11,42,1011.85
2020,02,18,11,43,1011.85
2020,02,18,11,44,1011.85
2020,02,18,11,45,1011.85
2020,02,18,11,46,1011.85
2020,02,18,11,47,1011.85
2020,02,18,11,48,1011.85
2020,02,18,11,49,1011.85
2020,02,18,11,50,995.78
2020,02,18,11,51,988.89
2020,02,18,11,52,995.59
2020,02,18,11,53,997.83
2020,02,18,11,54,997.83
2020,02,18,11,55,997.83
2020,02,18,11,56,997.83
2020,02,18,11,57,997.83
2020,02,18,11,58,997.83
2020,02,18,11,59,997.83
2020,02,18,12,00,997.83
2020,02,18,12,01,997.83
2020,02,18,12,02,997.83
2020,02,18,12,03,969.69
2020,02,18,12,04,960.31
2020,02,18,12,05,960.31
2020,02,18,12,06,960.31
2020,02,18,12,07,960.31
2020,02,18,12,08,960.31
2020,02,18,12,09,960.31
2020,02,18,12,10,965.31
2020,02,18,12,11,967.09
2020,02,18,12,12,967.09
2020,02,18,12,13,967.09
2020,02,18,12,14,967.09
2020,02,18,12,15,967.42
2020,02,18,12,16,967.53
2020,02,18,12,17,967.53
2020,02,18,12,18,967.53
2020,02,18,12,19,967.53
2020,02,18,12,20,967.53
2020,02,18,12,21,967.53
2020,02,18,12,22,967.53
2020,02,18,12,23,967.53
2020,02,18,12,24,967.53
2020,02,18,12,25,967.53
2020,02,18,12,26,967.53
2020,02,18,12,27,967.53
2020,02,18,12,28,967.53
2020,02,18,12,29,967.53
2020,02,18,12,30,967.53
2020,02,18,12,31,957.14
2020,02,18,12,32,953.68
2020,02,18,12,33,953.68
2020,02,18,12,34,953.68
2020,02,18,12,35,953.68
2020,02,18,12,36,953.68
2020,02,18,12,37,953.68
2020,02,18,12,38,953.68
2020,02,18,12,39,953.68
2020,02,18,12,40,953.68
2020,02,18,12,41,953.68
2020,02,18,12,42,953.68
2020,02,18,12,43,953.68
2020,02,18,12,44,953.68
2020,02,18,12,45,953.68
2020,02,18,12,46,953.68
2020,02,18,12,47,953.68
2020,02,18,12,48,953.68
2020,02,18,12,49,953.68
2020,02,18,12,50,953.68
2020,02,18,12,51,953.68
2020,02,18,12,52,953.68
2020,02,18,12,53,953.68
2020,02,18,12,54,953.68
2020,02,18,12,55,953.68
2020,02,18,12,56,953.68
2020,02,18,12,57,953.68
2020,02,18,12,58,953.68
2020,02,18,12,59,953.68
2020,02,18,13,00,953.68
2020,02,18,13,01,953.68
2020,02,18,13,02,958.39
2020,02,18,13,03,960.41
2020,02,18,13,04,960.41
2020,02,18,13,05,953.95
2020,02,18,13,06,951.64
2020,02,18,13,07,951.64
2020,02,18,13,08,951.64
2020,02,18,13,09,951.64
2020,02,18,13,10,951.64
2020,02,18,13,11,951.64
2020,02,18,13,12,951.64
2020,02,18,13,13,951.64
2020,02,18,13,14,951.64
2020,02,18,13,15,951.64
2020,02,18,13,16,951.64
2020,02,18,13,17,951.64
2020,02,18,13,18,951.64
2020,02,18,13,19,951.64
2020,02,18,13,20,951.64
2020,02,18,13,21,951.64
2020,02,18,13,22,919.06
2020,02,18,13,23,908.20
2020,02,18,13,24,908.20
2020,02,18,13,25,908.20
2020,02,18,13,26,908.20
2020,02,18,13,27,908.20
2020,02,18,13,28,908.20
2020,02,18,13,29,908.20
2020,02,18,13,30,908.20
2020,02,18,13,31,908.20
2020,02,18,13,32,908.20
2020,02,18,13,33,908.20
2020,02,18,13,34,908.20
2020,02,18,13,35,908.20
2020,02,18,13,36,908.20
2020,02,18,13,37,908.20
2020,02,18,13,38,908.20
2020,02,18,14,15,901.22
2020,02,18,14,16,901.22
2020,02,18,14,17,901.22
2020,02,18,14,18,901.22
2020,02,18,14,19,901.22
2020,02,18,14,20,901.22
2020,02,18,14,21,901.22
2020,02,18,14,22,901.22
2020,02,18,14,23,901.22
2020,02,18,14,24,901.22
2020,02,18,14,25,901.22
2020,02,18,14,26,901.22
2020,02,18,14,27,901.22
2020,02,18,14,28,901.22
2020,02,18,14,29,901.22
2020,02,18,14,30,901.22
2020,02,18,14,31,901.22
2020,02,18,14,32,901.22
2020,02,18,14,33,901.22
2020,02,18,14,34,901.22
2020,02,18,14,35,962.99
2020,02,18,14,36,989.47
2020,02,18,14,37,989.47
2020,02,18,14,38,989.47
2020,02,18,14,39,989.47
2020,02,18,14,40,989.47
2020,02,18,14,41,985.93
2020,02,18,14,42,984.42
2020,02,18,14,43,984.42
2020,02,18,14,44,984.42
2020,02,18,14,45,984.42
2020,02,18,14,46,984.42
2020,02,18,14,47,984.42
2020,02,18,14,48,984.42
2020,02,18,14,49,984.42
2020,02,18,14,50,984.42
2020,02,18,14,51,984.42
2020,02,18,14,52,984.42
2020,02,18,14,53,984.42
2020,02,18,14,54,984.42
2020,02,18,14,55,984.42
2020,02,18,14,56,984.42
2020,02,18,14,57,984.42
2020,02,18,14,58,984.42
2020,02,18,14,59,984.42
2020,02,18,15,00,984.42
2020,02,18,15,01,984.42
2020,02,18,15,02,984.42
2020,02,18,15,03,984.42
2020,02,18,15,04,984.42
2020,02,18,15,05,984.42
2020,02,18,15,06,1010.50
2020,02,18,15,07,1019.81
2020,02,18,15,08,1019.81
2020,02,18,15,09,1014.59
2020,02,18,15,10,1012.92
2020,02,18,15,11,1013.00
2020,02,18,15,12,1013.00
2020,02,18,15,13,1013.00
2020,02,18,15,14,1013.00
2020,02,18,15,15,1013.00
2020,02,18,15,16,1013.00
2020,02,18,15,17,1022.41
2020,02,18,15,18,1026.18
2020,02,18,15,19,1026.18
2020,02,18,15,20,1026.18
2020,02,18,15,21,1026.18
2020,02,18,15,22,1026.18
2020,02,18,15,23,1026.18
2020,02,18,15,24,1026.18
2020,02,18,15,25,1026.18
2020,02,18,15,26,1026.18
2020,02,18,15,27,1019.47
2020,02,18,15,28,1016.59
2020,02,18,15,29,1016.59
2020,02,18,15,30,1016.59
2020,02,18,15,31,1016.59
2020,02,18,15,32,1016.59
2020,02,18,15,33,1016.59
2020,02,18,15,34,1016.59
2020,02,18,15,35,1016.59
2020,02,18,15,36,1016.59
2020,02,18,15,37,1019.63
2020,02,18,15,38,1020.62
2020,02,18,15,39,1020.49
2020,02,18,15,40,1020.49
2020,02,18,15,41,1025.84
2020,02,18,15,42,1028.09
2020,02,18,15,43,1028.12
2020,02,18,15,44,1028.09
2020,02,18,15,45,1028.12
2020,02,18,15,46,1028.12
2020,02,18,15,47,1028.11
2020,02,18,15,48,1028.11
2020,02,18,15,49,1028.11
2020,02,18,15,50,1028.06
2020,02,18,15,51,1028.09
2020,02,18,15,52,1028.08
2020,02,18,15,53,1028.05
2020,02,18,15,54,1028.02
2020,02,18,15,55,1028.01
2020,02,18,15,56,1027.98
2020,02,18,15,57,1027.95
2020,02,18,15,58,1027.94
2020,02,18,15,59,1027.96
2020,02,18,16,00,1027.95
2020,02,18,16,01,1027.96
2020,02,18,16,02,1027.95
2020,02,18,16,03,1027.99
2020,02,18,16,04,1027.98
2020,02,18,16,05,1027.97
2020,02,18,16,06,1027.95
2020,02,18,16,07,1027.96
2020,02,18,16,08,1027.95
2020,02,18,16,09,1027.91
2020,02,18,16,10,1027.93
2020,02,18,16,11,1027.89
2020,02,18,16,12,1027.89
2020,02,18,16,13,1027.90
2020,02,18,16,14,1027.86
2020,02,18,16,15,1027.88
2020,02,18,16,16,1027.88
2020,02,18,16,17,1027.89
2020,02,18,16,18,1027.86
2020,02,18,16,19,1027.84
2020,02,18,16,20,1027.81
2020,02,18,16,21,1027.83
2020,02,18,16,22,1027.81
2020,02,18,16,23,1027.83
2020,02,18,16,24,1027.81
2020,02,18,16,25,1027.85
2020,02,18,16,26,1027.82
2020,02,18,16,27,1027.83
2020,02,18,16,28,1027.84
2020,02,18,16,29,1027.84
2020,02,18,16,30,1027.84
2020,02,18,16,31,1027.84
2020,02,18,16,32,1027.84
2020,02,18,16,33,1027.81
2020,02,18,16,34,1027.78
2020,02,18,16,35,1027.79
2020,02,18,16,36,1027.78
2020,02,18,16,37,1027.75
2020,02,18,16,38,1027.74
2020,02,18,16,39,1027.74
2020,02,18,16,40,1027.74
2020,02,18,16,41,1027.78